Location: Ocean City
(38.3360°N, 75.0850°W)
Time: 16:18:27
(UTC-05:00)

Explorer 11/Cluster Stage 4 - Pass Details

Date: 20 November 2019
Orbit: 467 x 1259 km, 28.8° (Epoch: 13 December)

Event Time Altitude Azimuth Distance (km) Brightness Sun altitude
Rises 17:58:30 0° 209° (SSW) 2,855 10.2 -14.5°
Reaches altitude 10° 18:01:46 10° 183° (S) 2,106 9.0 -15.1°
Maximum altitude 18:04:14 14° 153° (SSE) 1,981 8.5 -15.6°
Enters shadow 18:06:34 11° 127° (SE) 2,284 8.6 -16.0°
Drops below altitude 10° 18:06:58 10° 123° (ESE) 2,369 - -16.1°
Sets 18:11:03 0° 100° (E) 3,513 - -16.9°
